Flag for Finland Weather past 2 weeks in Oulu, Finland

Now
63 °F

Passing clouds.


Feels Like: 63 °F
Forecast: 55 / 67 °F
Wind: 7 mph from Northwest

Location: Oulu Airport

Current Time: Jul 29, 2015 at 10:35:43 AM

Latest Report: Jul 29, 2015 at 10:20 AM


Visibility: N/A

Pressure: 29.47 "Hg

Humidity: 77%

Dew point: 55 °F

Location of OuluLocation

Historic Weather in Oulu — Graph

°F

Oulu temperature yesterday

Maximum temperature yesterday: 66 °F (at 3:20 PM)
Minimum temperature yesterday: 55 °F (at 3:50 AM)
Average temperature yesterday: 61 °F

Past Weeks' High & Low Weather Summary

 TemperatureHumidityPressure
High70 °F (Jul 26, 2:20 PM)100% (Jul 17, 4:20 AM)29.89 "Hg (Jul 17, 4:20 AM)
Low39 °F (Jul 15, 2:50 AM)43% (Jul 18, 11:50 AM)29.45 "Hg (Jul 19, 1:50 PM)
Average59 °F80%29.66 "Hg
* Reported Jul 14 9:20 AM — Jul 29 9:20 AM, Oulu, Weather by CustomWeather, © 2015

Note: Actual official high and low records may vary slightly from our data, if they occured in-between our weather recording intervals... More about our weather records

Advertising

Oulu weather history for previous 24 hours

 ConditionsComfort  
Time TempWeatherWind HumidityBarometerVisibility
9:20 AM
Wed, Jul 29
63 °FSunny.6 mph77%29.50 "Hg10 mi
8:50 AM63 °FPassing clouds.5 mph77%29.50 "HgN/A
8:20 AM63 °FPassing clouds.3 mph83%29.50 "HgN/A
7:50 AM61 °FSunny.2 mph88%29.53 "Hg10 mi
7:20 AM61 °FPassing clouds.3 mph88%29.53 "HgN/A
6:50 AM59 °FScattered clouds.2 mph94%29.53 "HgN/A
6:20 AM59 °FScattered clouds.2 mph94%29.53 "HgN/A
5:50 AM57 °FOvercast.3 mph94%29.56 "HgN/A
5:20 AM57 °FPartly sunny.3 mph94%29.56 "HgN/A
4:50 AM55 °FPassing clouds.3 mph100%29.56 "HgN/A
4:20 AM57 °FClear.3 mph94%29.56 "Hg10 mi
3:50 AM57 °FPassing clouds.3 mph94%29.59 "HgN/A
3:20 AM59 °FPassing clouds.3 mph94%29.59 "HgN/A
2:50 AM59 °FPassing clouds.5 mph94%29.59 "HgN/A
2:20 AM59 °FPassing clouds.6 mph94%29.59 "HgN/A
1:50 AM59 °FPassing clouds.6 mph94%29.62 "HgN/A
12:20 AM59 °FPassing clouds.5 mph94%29.62 "HgN/A
11:50 PM
Tue, Jul 28
59 °FPassing clouds.3 mph100%29.62 "HgN/A
11:20 PM61 °FPartly sunny.3 mph94%29.62 "HgN/A
10:50 PM61 °FPartly sunny.2 mph94%29.62 "HgN/A
10:20 PM61 °FScattered clouds.2 mph94%29.62 "HgN/A
9:50 PM63 °FPartly sunny.3 mph88%29.62 "HgN/A
9:20 PM63 °FOvercast.3 mph88%29.65 "HgN/A
8:50 PM63 °FOvercast.3 mph88%29.65 "HgN/A
8:20 PM63 °FPartly sunny.5 mph83%29.65 "HgN/A
7:50 PM63 °FOvercast.6 mph83%29.65 "HgN/A
7:20 PM64 °FOvercast.6 mph78%29.65 "HgN/A
6:50 PM64 °FOvercast.5 mph78%29.68 "HgN/A
6:20 PM64 °FOvercast.3 mph78%29.68 "HgN/A
5:50 PM64 °FOvercast.6 mph78%29.68 "HgN/A
5:20 PM64 °FOvercast.5 mph73%29.68 "HgN/A
4:50 PM66 °FOvercast.1 mph68%29.68 "HgN/A
4:20 PM64 °FOvercast.2 mph68%29.68 "HgN/A
3:50 PM64 °FOvercast.1 mph68%29.68 "HgN/A
3:20 PM66 °FOvercast.2 mph64%29.68 "HgN/A
2:50 PM64 °FOvercast.5 mph68%29.68 "HgN/A
2:20 PM64 °FOvercast.6 mph73%29.68 "HgN/A
1:50 PM64 °FOvercast.6 mph68%29.68 "HgN/A
1:20 PM64 °FMore clouds than sun.7 mph73%29.68 "HgN/A
12:50 PM64 °FCloudy.7 mph73%29.68 "HgN/A
12:20 PM63 °FMore clouds than sun.9 mph77%29.68 "HgN/A
11:50 AM63 °FMore clouds than sun.8 mph77%29.68 "HgN/A
11:20 AM63 °FOvercast.9 mph77%29.68 "HgN/A
10:50 AM61 °FOvercast.8 mph83%29.68 "HgN/A
10:20 AM61 °FOvercast.7 mph83%29.68 "HgN/A
Weather by CustomWeather, © 2015

See weather overviewHow to use our weather pages